Location: Rio Negrinho
(26.2394°S, 49.4999°W)
Time: 20:24:28
(UTC+00:00)

Envisat - Pass Details

Date: 31 July 2021
Orbit: 764 x 766 km, 98.2° (Epoch: 17 September)

Event Time Altitude Azimuth Distance (km) Brightness Sun altitude
Rises 09:00:40 0° 335° (NNW) 3,215 6.1 -13.1°
Reaches altitude 10° 09:03:46 10° 315° (NW) 2,298 5.2 -12.4°
Maximum altitude 09:06:57 17° 275° (W) 1,879 4.4 -11.7°
Enters shadow 09:08:25 15° 255° (WSW) 1,978 4.5 -11.4°
